Location: Balsareny
(41.8670°N, 1.8830°E)
Time: 04:54:06
(UTC+01:00)

N. Korean satellite - Pass Details

Date: 08 December 2021
Orbit: 447 x 491 km, 97.3° (Epoch: 23 January)

Event Time Altitude Azimuth Distance (km) Brightness Sun altitude
Rises 07:03:28 0° 354° (N) 2,458 9.9 -11.6°
Reaches altitude 10° 07:06:00 10° 334° (NNW) 1,580 8.7 -11.1°
Maximum altitude 07:08:15 17° 292° (WNW) 1,212 7.9 -10.8°
Drops below altitude 10° 07:10:30 10° 250° (WSW) 1,573 8.7 -10.4°
Sets 07:13:01 0° 229° (SW) 2,443 9.9 -9.9°
